timestamp,wind_dir_avg,wind_spd_max_dir,wind_spd_avg,wind_spd_gust,battery_voltage,lat,long
2017-10-22 00:00:00+00:00,337.0,342.0,8.95,10.8,12.7,47.59359,-54.27349
2017-10-22 00:10:00+00:00,340.0,345.0,9.81,11.1,12.6,47.59359,-54.27349
2017-10-22 00:20:00+00:00,334.0,340.0,9.42,11.52,12.7,47.59359,-54.27349
2017-10-22 00:30:00+00:00,340.0,335.0,10.77,12.35,12.7,47.59359,-54.27349
2017-10-22 00:40:00+00:00,340.0,342.0,10.93,12.61,12.7,47.59359,-54.27349
2017-10-22 00:50:00+00:00,338.0,336.0,9.87,11.33,12.7,47.59359,-54.27349
2017-10-22 01:00:00+00:00,337.0,336.0,12.11,13.49,12.6,47.59359,-54.27349
2017-10-22 01:10:00+00:00,333.0,332.0,9.56,11.89,12.6,47.59359,-54.27349
2017-10-22 01:20:00+00:00,333.0,330.0,9.71,11.07,12.7,47.59359,-54.27349
2017-10-22 01:30:00+00:00,334.0,333.0,7.01,8.45,12.7,47.59359,-54.27349
2017-10-22 01:40:00+00:00,332.0,335.0,9.07,11.66,12.7,47.59359,-54.27349
2017-10-22 01:50:00+00:00,342.0,342.0,10.55,12.61,12.7,47.59359,-54.27349
2017-10-22 02:00:00+00:00,335.0,339.0,10.03,12.04,12.6,47.59359,-54.27349
2017-10-22 02:10:00+00:00,335.0,350.0,8.98,10.31,12.6,47.59359,-54.27349
2017-10-22 02:20:00+00:00,328.0,316.0,8.03,11.06,12.7,47.59359,-54.27349
2017-10-22 02:30:00+00:00,334.0,334.0,8.76,10.79,12.7,47.59359,-54.27349
2017-10-22 02:40:00+00:00,321.0,325.0,7.59,9.19,12.7,47.59359,-54.27349
2017-10-22 02:50:00+00:00,329.0,337.0,7.73,11.32,12.7,47.59359,-54.27349
2017-10-22 03:00:00+00:00,332.0,328.0,7.63,9.12,12.6,47.59359,-54.27349
2017-10-22 03:10:00+00:00,328.0,350.0,7.22,8.98,12.6,47.59359,-54.27349
2017-10-22 03:20:00+00:00,326.0,325.0,8.17,10.12,12.6,47.59359,-54.27349
2017-10-22 03:30:00+00:00,327.0,322.0,7.28,9.02,12.6,47.59359,-54.27349
2017-10-22 03:40:00+00:00,320.0,331.0,6.79,8.37,12.7,47.59359,-54.27349
2017-10-22 03:50:00+00:00,316.0,314.0,6.46,7.34,12.7,47.59359,-54.27349
2017-10-22 04:00:00+00:00,312.0,306.0,7.93,9.2,12.6,47.59359,-54.27349
2017-10-22 04:10:00+00:00,314.0,311.0,8.19,10.37,12.6,47.59359,-54.27349
2017-10-22 04:20:00+00:00,309.0,310.0,8.28,9.49,12.6,47.59359,-54.27349
2017-10-22 04:30:00+00:00,326.0,326.0,7.59,8.74,12.6,47.59359,-54.27349
2017-10-22 04:40:00+00:00,316.0,323.0,8.41,9.7,12.6,47.59359,-54.27349
2017-10-22 04:50:00+00:00,325.0,320.0,9.41,11.03,12.6,47.59359,-54.27349
2017-10-22 05:00:00+00:00,324.0,324.0,8.07,9.42,12.6,47.59359,-54.27349
2017-10-22 05:10:00+00:00,331.0,330.0,8.16,9.28,12.6,47.59359,-54.27349
2017-10-22 05:20:00+00:00,318.0,317.0,7.79,9.39,12.6,47.59359,-54.27349
2017-10-22 05:30:00+00:00,310.0,299.0,6.26,7.27,12.6,47.59359,-54.27349
2017-10-22 05:40:00+00:00,312.0,322.0,7.26,8.56,12.6,47.59359,-54.27349
2017-10-22 05:50:00+00:00,328.0,337.0,8.64,10.47,12.6,47.59359,-54.27349
2017-10-22 06:00:00+00:00,322.0,337.0,7.93,11.36,12.6,47.59359,-54.27349
2017-10-22 06:10:00+00:00,329.0,333.0,7.96,9.8,12.6,47.59359,-54.27349
2017-10-22 06:20:00+00:00,334.0,341.0,8.31,10.17,12.6,47.59359,-54.27349
2017-10-22 06:30:00+00:00,334.0,342.0,9.84,11.83,12.6,47.59359,-54.27349
2017-10-22 06:40:00+00:00,334.0,333.0,8.73,11.47,12.6,47.59359,-54.27349
2017-10-22 06:50:00+00:00,336.0,337.0,9.03,10.3,12.6,47.59359,-54.27349
2017-10-22 07:00:00+00:00,325.0,325.0,9.55,11.76,12.6,47.59359,-54.27349
2017-10-22 07:10:00+00:00,333.0,341.0,9.32,11.92,12.5,47.59359,-54.27349
2017-10-22 07:20:00+00:00,334.0,344.0,8.64,10.26,12.6,47.59359,-54.27349
2017-10-22 07:30:00+00:00,341.0,352.0,9.97,11.36,12.6,47.59359,-54.27349
2017-10-22 07:40:00+00:00,332.0,333.0,8.47,9.86,12.6,47.59359,-54.27349
2017-10-22 07:50:00+00:00,343.0,344.0,9.35,11.43,12.6,47.59359,-54.27349
2017-10-22 08:00:00+00:00,336.0,346.0,10.05,11.77,12.6,47.59359,-54.27349
2017-10-22 08:10:00+00:00,331.0,340.0,10.34,11.61,12.5,47.59359,-54.27349
2017-10-22 08:20:00+00:00,334.0,333.0,9.69,11.59,12.6,47.59359,-54.27349
2017-10-22 08:30:00+00:00,334.0,329.0,9.75,11.57,12.6,47.59359,-54.27349
2017-10-22 08:40:00+00:00,331.0,328.0,9.98,12.11,12.6,47.59359,-54.27349
2017-10-22 08:50:00+00:00,339.0,340.0,11.82,13.75,12.6,47.59359,-54.27349
2017-10-22 09:00:00+00:00,330.0,326.0,10.26,12.25,12.6,47.59359,-54.27349
2017-10-22 09:10:00+00:00,328.0,328.0,10.55,12.33,12.5,47.59359,-54.27349
2017-10-22 09:20:00+00:00,324.0,322.0,9.86,11.29,12.6,47.59359,-54.27349
2017-10-22 09:30:00+00:00,324.0,323.0,10.11,12.17,12.6,47.59359,-54.27349
2017-10-22 09:40:00+00:00,333.0,333.0,9.64,11.85,12.6,47.59359,-54.27349
2017-10-22 09:50:00+00:00,337.0,347.0,10.61,12.05,12.6,47.59359,-54.27349
2017-10-22 10:00:00+00:00,326.0,336.0,8.37,10.1,12.5,47.59359,-54.27349
2017-10-22 10:10:00+00:00,323.0,327.0,9.08,11.08,12.4,47.59359,-54.27349
2017-10-22 10:20:00+00:00,320.0,324.0,9.35,11.66,12.6,47.59359,-54.27349
2017-10-22 10:30:00+00:00,331.0,339.0,8.02,10.17,13.3,47.59359,-54.27349
2017-10-22 10:40:00+00:00,332.0,331.0,9.41,12.69,13.8,47.59359,-54.27349
2017-10-22 10:50:00+00:00,335.0,327.0,9.5,12.6,14.2,47.59359,-54.27349
2017-10-22 11:00:00+00:00,328.0,322.0,8.98,11.55,13.8,47.59359,-54.27349
2017-10-22 11:10:00+00:00,335.0,339.0,9.75,11.01,13.8,47.59359,-54.27349
2017-10-22 11:20:00+00:00,332.0,327.0,10.74,12.29,13.8,47.59359,-54.27349
2017-10-22 11:30:00+00:00,342.0,347.0,11.78,14.71,13.9,47.59359,-54.27349
2017-10-22 11:40:00+00:00,330.0,335.0,9.77,11.67,14.0,47.59359,-54.27349
2017-10-22 11:50:00+00:00,339.0,340.0,13.38,16.61,14.2,47.59359,-54.27349
2017-10-22 12:00:00+00:00,349.0,356.0,11.96,14.18,13.8,47.59359,-54.27349
2017-10-22 12:10:00+00:00,342.0,347.0,12.31,14.92,14.0,47.59359,-54.27349
2017-10-22 12:20:00+00:00,343.0,344.0,11.53,13.89,14.1,47.59359,-54.27349
2017-10-22 12:30:00+00:00,340.0,344.0,14.46,16.91,14.0,47.59359,-54.27349
2017-10-22 12:40:00+00:00,345.0,341.0,12.87,16.2,14.1,47.59359,-54.27349
2017-10-22 12:50:00+00:00,344.0,332.0,14.16,16.97,14.1,47.59359,-54.27349
2017-10-22 13:00:00+00:00,346.0,344.0,11.0,12.75,14.2,47.59359,-54.27349
2017-10-22 13:10:00+00:00,352.0,355.0,14.31,16.2,14.1,47.59359,-54.27349
2017-10-22 13:20:00+00:00,339.0,331.0,11.64,13.79,14.2,47.59359,-54.27349
2017-10-22 13:30:00+00:00,348.0,350.0,13.46,15.89,14.1,47.59359,-54.27349
2017-10-22 13:40:00+00:00,348.0,346.0,11.51,14.08,14.2,47.59359,-54.27349
2017-10-22 13:50:00+00:00,351.0,356.0,10.76,14.05,14.2,47.59359,-54.27349
2017-10-22 14:00:00+00:00,351.0,348.0,11.12,13.84,14.2,47.59359,-54.27349
2017-10-22 14:10:00+00:00,353.0,358.0,11.14,12.88,14.2,47.59359,-54.27349
2017-10-22 14:20:00+00:00,353.0,349.0,11.06,13.02,14.2,47.59359,-54.27349
2017-10-22 14:30:00+00:00,350.0,346.0,12.75,14.77,14.2,47.59359,-54.27349
2017-10-22 14:40:00+00:00,348.0,346.0,12.16,15.35,14.2,47.59359,-54.27349
2017-10-22 14:50:00+00:00,341.0,339.0,13.78,15.86,13.7,47.59359,-54.27349
2017-10-22 15:00:00+00:00,345.0,340.0,12.87,15.58,14.1,47.59359,-54.27349
2017-10-22 15:10:00+00:00,344.0,351.0,9.3,11.54,14.1,47.59359,-54.27349
2017-10-22 15:20:00+00:00,348.0,344.0,13.13,15.78,14.1,47.59359,-54.27349
2017-10-22 15:30:00+00:00,350.0,350.0,11.89,13.11,14.2,47.59359,-54.27349
2017-10-22 15:40:00+00:00,355.0,357.0,10.5,12.08,14.2,47.59359,-54.27349
2017-10-22 15:50:00+00:00,349.0,348.0,11.67,13.41,14.2,47.59359,-54.27349
2017-10-22 16:00:00+00:00,348.0,344.0,12.22,14.95,14.1,47.59359,-54.27349
2017-10-22 16:10:00+00:00,5.0,11.0,12.64,14.35,14.0,47.59359,-54.27349
2017-10-22 16:20:00+00:00,347.0,345.0,10.66,12.24,14.1,47.59359,-54.27349
2017-10-22 16:30:00+00:00,350.0,341.0,11.4,13.19,13.7,47.59359,-54.27349
2017-10-22 16:40:00+00:00,3.0,5.0,12.41,13.51,13.7,47.59359,-54.27349
2017-10-22 16:50:00+00:00,349.0,351.0,13.4,15.27,13.8,47.59359,-54.27349
2017-10-22 17:00:00+00:00,346.0,345.0,12.88,15.33,13.7,47.59359,-54.27349
2017-10-22 17:10:00+00:00,3.0,357.0,12.88,15.16,13.7,47.59359,-54.27349
2017-10-22 17:20:00+00:00,1.0,4.0,12.33,14.14,13.7,47.59359,-54.27349
2017-10-22 17:30:00+00:00,359.0,358.0,13.78,17.01,13.7,47.59359,-54.27349
2017-10-22 17:40:00+00:00,359.0,3.0,11.35,13.57,13.7,47.59359,-54.27349
2017-10-22 17:50:00+00:00,347.0,347.0,13.81,15.78,13.7,47.59359,-54.27349
2017-10-22 18:00:00+00:00,359.0,0.0,11.98,14.69,13.7,47.59359,-54.27349
2017-10-22 18:10:00+00:00,352.0,352.0,13.78,17.17,13.7,47.59359,-54.27349
2017-10-22 18:20:00+00:00,349.0,350.0,12.03,13.78,14.0,47.59359,-54.27349
2017-10-22 18:30:00+00:00,0.0,0.0,11.88,13.52,14.0,47.59359,-54.27349
2017-10-22 18:40:00+00:00,359.0,358.0,10.96,12.03,14.0,47.59359,-54.27349
2017-10-22 18:50:00+00:00,8.0,5.0,12.54,14.47,13.9,47.59359,-54.27349
2017-10-22 19:00:00+00:00,3.0,6.0,11.69,12.88,13.8,47.59359,-54.27349
2017-10-22 19:10:00+00:00,0.0,2.0,11.66,13.23,13.7,47.59359,-54.27349
2017-10-22 19:20:00+00:00,7.0,9.0,11.12,14.28,13.7,47.59359,-54.27349
2017-10-22 19:30:00+00:00,354.0,356.0,11.13,12.62,13.7,47.59359,-54.27349
2017-10-22 19:40:00+00:00,0.0,3.0,11.66,14.15,13.6,47.59359,-54.27349
2017-10-22 19:50:00+00:00,0.0,357.0,12.38,14.18,13.6,47.59359,-54.27349
2017-10-22 20:00:00+00:00,18.0,18.0,11.3,12.69,13.4,47.59359,-54.27349
2017-10-22 20:10:00+00:00,10.0,7.0,12.11,14.03,13.3,47.59359,-54.27349
2017-10-22 20:20:00+00:00,10.0,11.0,11.43,13.38,13.2,47.59359,-54.27349
2017-10-22 20:30:00+00:00,5.0,357.0,9.59,13.26,13.1,47.59359,-54.27349
2017-10-22 20:40:00+00:00,5.0,8.0,9.62,13.14,13.1,47.59359,-54.27349
2017-10-22 20:50:00+00:00,13.0,16.0,9.71,11.9,13.0,47.59359,-54.27349
2017-10-22 21:00:00+00:00,18.0,15.0,11.34,12.88,13.0,47.59359,-54.27349
2017-10-22 21:10:00+00:00,23.0,20.0,10.35,12.71,12.8,47.59359,-54.27349
2017-10-22 21:20:00+00:00,1.0,1.0,7.27,9.17,12.8,47.59359,-54.27349
2017-10-22 21:30:00+00:00,8.0,14.0,9.31,11.05,12.8,47.59359,-54.27349
2017-10-22 21:40:00+00:00,1.0,0.0,9.18,10.81,12.8,47.59359,-54.27349
2017-10-22 21:50:00+00:00,18.0,18.0,9.63,11.17,12.8,47.59359,-54.27349
2017-10-22 22:00:00+00:00,21.0,19.0,9.98,11.68,12.7,47.59359,-54.27349
2017-10-22 22:10:00+00:00,18.0,23.0,10.29,12.19,12.6,47.59359,-54.27349
2017-10-22 22:20:00+00:00,1.0,357.0,12.43,14.13,12.7,47.59359,-54.27349
2017-10-22 22:30:00+00:00,15.0,15.0,11.73,13.4,12.7,47.59359,-54.27349
2017-10-22 22:40:00+00:00,6.0,4.0,10.02,11.67,12.8,47.59359,-54.27349
2017-10-22 22:50:00+00:00,10.0,4.0,8.02,9.83,12.8,47.59359,-54.27349
2017-10-22 23:00:00+00:00,345.0,346.0,7.3,8.36,12.7,47.59359,-54.27349
2017-10-22 23:10:00+00:00,5.0,9.0,7.75,9.83,12.6,47.59359,-54.27349
2017-10-22 23:20:00+00:00,345.0,345.0,8.66,9.45,12.7,47.59359,-54.27349
2017-10-22 23:30:00+00:00,1.0,2.0,8.95,10.79,12.7,47.59359,-54.27349
2017-10-22 23:40:00+00:00,5.0,6.0,8.95,12.33,12.7,47.59359,-54.27349
2017-10-22 23:50:00+00:00,17.0,14.0,9.08,10.21,12.7,47.59359,-54.27349
